Location: Offanengo
(45.3667°N, 9.7333°E)
Time: 13:46:41
(UTC+00:00)

Daily predictions for brighter satellites

Satellite Brightness Start Highest point End
(mag) Time Altitude Azimuth Time Altitude Azimuth Time Altitude Azimuth
H-2A ROCKET BODY 4.2 19:31:25 10° SSW 19:35:01 18° SSE 19:42:42 10° ESE
Cosmos 1745 Rocket 4.2 19:40:39 10° SSE 19:46:38 55° E 19:52:44 10° NNE
Resurs 1-3 4.0 19:45:48 10° S 19:50:10 67° WSW 19:54:33 10° NNW
Cosmos 1125 Rocket 3.7 19:46:05 10° NNW 19:51:21 77° WSW 19:56:36 10° SSE
Meteor 1-21 Rocket 4.4 19:49:50 10° S 19:55:40 67° E 20:01:34 10° NNE
SPOT 1/Viking Rocket 4.3 19:51:48 10° SE 19:56:32 38° ENE 20:01:17 10° N
USA 267 4.5 19:50:46 10° E 19:56:42 38° NNE 20:02:37 10° NW
VEP-3 4.5 19:57:39 10° SSW 20:00:05 12° SSE 20:03:00 10° SE
Cosmos 2322 Rocket 2.6 19:55:33 10° SSW 20:01:09 71° WNW 20:06:47 10° NNE
Alouette 2 Rocket 4.4 19:57:51 10° N 20:01:27 36° ENE 20:06:06 10° SE
SL-08 ROCKET BODY 4.4 19:56:12 10° S 20:02:05 72° E 20:08:08 10° NNE
SPOT 3 Rocket 4.3 19:57:26 10° S 20:02:31 55° W 20:07:39 10° NNW
NOSS 7 (D) 3.7 20:00:29 10° SSW 20:03:21 78° SE 20:06:02 10° NE
Cosmos 2237 4.2 19:58:10 10° SSW 20:03:51 71° ESE 20:09:35 10° NNE
Cosmos 1328 4.4 20:02:35 10° SSE 20:06:18 39° E 20:10:01 10° NNE
Cosmos 1455 2.2 20:08:46 10° N 20:12:38 84° ENE 20:16:30 10° S
Cosmos 1825 Rocket 3.8 20:11:17 10° S 20:15:35 54° E 20:19:57 10° NNE
ATLAS CENTAUR R/B 2.8 20:16:02 10° NNW 20:19:04 23° NE 20:22:01 10° E
Cosmos 1703 3.2 20:16:21 10° S 20:20:10 65° E 20:24:03 10° NNE
COSMOS 2428 3.5 20:16:18 10° SSE 20:21:09 30° ESE 20:26:02 10° NE
Cosmos 1812 Rocket 4.2 20:18:36 10° NNW 20:22:51 55° W 20:27:04 10° S
SL-24 R/B - RUBIN 2 4.5 20:18:01 10° SSW 20:23:51 59° ESE 20:30:18 10° NE
Cosmos 1844 3.8 20:18:50 10° NNW 20:24:38 72° ENE 20:29:32 14° SE
Cosmos 2322 3.9 20:19:22 10° S 20:24:55 54° ESE 20:30:30 10° NE
Cosmos 783 Rocket 4.5 20:25:51 10° SSW 20:31:05 83° ESE 20:36:21 10° NNE
Cosmos 1709 Rocket 4.1 20:25:27 10° S 20:31:39 68° E 20:37:59 10° NNE
Cosmos 2263 Rocket 4.4 20:28:46 10° WNW 20:32:27 18° W 20:36:09 10° SW
NOSS 3-3 (A) 4.2 20:28:02 10° S 20:33:25 42° ESE 20:39:25 10° NE
Nadezhda 1 Rocket 4.4 20:27:10 10° NNW 20:33:31 66° W 20:39:48 10° S
NOSS 3-3 (C) 4.3 20:28:09 10° S 20:33:32 42° ESE 20:39:32 10° NE
MetOp-B 4.5 20:28:22 10° S 20:33:39 65° WSW 20:39:00 10° NNW
Terra 2.7 20:31:40 15° SE 20:35:06 36° ENE 20:39:27 10° N
Cosmos 2237 Rocket 3.8 20:33:11 13° ESE 20:35:07 16° E 20:38:20 10° ENE
Atlas Centaur 2 3.7 20:31:04 10° SW 20:35:33 21° S 20:38:47 16° SE
CARTOSAT-1 3.8 20:32:57 16° SE 20:36:11 54° ENE 20:40:24 10° N
Cosmos 2333 4.2 20:31:08 10° SSW 20:36:42 65° ESE 20:42:21 10° NNE
Cosmos 2219 Rocket 2.5 20:31:51 10° S 20:37:07 45° ESE 20:42:26 10° NE
Cosmos 2360 Rocket 2.6 20:33:25 10° SW 20:39:01 67° WNW 20:44:42 10° NNE
IGS 5A 3.6 20:35:34 12° S 20:39:22 71° WSW 20:43:32 10° NNW
Cosmos 1538 Rocket 4.5 20:35:01 10° S 20:40:00 43° ESE 20:45:02 10° NNE
IRIS 4.5 20:40:11 10° WSW 20:42:50 31° S 20:43:19 28° SSE
Cosmos 2333 Rocket 2.3 20:41:19 10° S 20:46:52 58° ESE 20:52:29 10° NNE
Resurs 01 Rocket 3.6 20:47:48 10° SSW 20:51:22 24° W 20:54:57 10° NW
ATLAS 2AS CENTAUR R/B 4.1 20:44:47 10° NNW 20:51:44 35° NNE 20:58:12 10° E
Cosmos 1315 Rocket 3.3 20:47:56 10° N 20:51:56 49° ENE 20:54:13 23° SE
Cosmos 1818 4.3 20:49:11 10° SW 20:54:30 56° NW 20:59:53 10° NNE
Cosmos-2242 3.6 20:51:08 10° NNW 20:55:24 56° W 20:59:06 13° S
Cosmos 773 Rocket 4.0 20:51:37 10° SSW 20:56:56 90° WNW 21:02:16 10° NNE
Cosmos 2221 3.4 20:56:20 10° N 21:00:24 36° ENE 21:02:29 23° SE
ERS-1 Rocket 3.0 20:56:51 18° SSE 21:00:36 84° WSW 21:05:41 10° NNW
GEOS 3 Rocket 4.1 20:58:23 10° NE 21:03:45 68° NW 21:09:06 10° SW
USA 215 3.2 21:00:29 10° NE 21:07:04 76° SE 21:13:36 10° SW
Cosmos 1892 4.0 21:07:02 22° ESE 21:07:49 24° E 21:10:53 10° NE
Cosmos 2278 Rocket 2.9 21:04:05 10° NNW 21:09:32 45° ENE 21:13:09 20° ESE
ATLAS 5 CENTAUR R/B 2.9 21:07:21 10° WSW 21:11:20 41° NW 21:15:49 10° NNE
Meteor 1-11 4.4 21:05:50 10° SSW 21:11:26 76° WNW 21:17:09 10° N
Cosmos 1844 Rocket 3.6 21:09:05 10° NW 21:14:14 39° WSW 21:18:16 15° SSW
Cosmos 1400 Rocket 4.3 21:11:08 10° NNW 21:14:41 31° W 21:17:41 13° SSW
Gblst 52 Del rocket 4.4 21:09:34 10° WNW 21:15:18 77° NNE 21:20:33 16° ESE
SPOT 5 3.1 21:13:56 21° S 21:17:21 68° WSW 21:22:10 10° NNW
SL-16 R/B 4.1 21:18:56 12° ESE 21:19:31 13° E 21:21:50 10° ENE
Lacrosse 5 rocket 4.2 21:18:05 10° NW 21:20:43 16° N 21:23:15 10° NE
USA 81 4.3 21:19:52 14° SSW 21:24:19 67° W 21:29:36 10° N
Cosmos 2058 3.5 21:25:00 32° SE 21:26:12 41° E 21:30:07 10° NNE
Cosmos 2154 Rocket 4.5 21:23:04 25° SE 21:26:13 44° E 21:32:03 10° NNE
BREEZE M DEB (TANK) 2.9 21:26:08 10° W 21:27:39 28° WSW 21:27:39 28° WSW
Cosmos 1408 3.9 21:29:06 24° E 21:29:17 24° E 21:32:14 10° NE
Cosmos 2181 Rocket 4.3 21:23:25 10° NNW 21:29:41 63° W 21:34:14 19° SSW
In-Cosmos 22 Rocket 4.2 21:29:54 28° SSE 21:32:31 58° E 21:37:44 10° NNE
Cosmos 2074 Rocket 3.9 21:29:15 22° S 21:33:27 79° E 21:39:41 10° N
TSX-5 4.0 21:32:43 10° NNW 21:36:11 56° ENE 21:37:36 35° ESE
Cosmos 1076 Rocket 3.8 21:36:08 36° SE 21:37:23 48° E 21:41:32 10° NNE
Cosmos 1680 Rocket 3.9 21:35:42 31° SSE 21:37:47 46° ESE 21:42:52 10° NNE
USA 267 3.4 21:34:05 18° ESE 21:39:10 76° NE 21:45:44 10° NW
Cosmos 2084 3.7 21:42:19 10° NW 21:46:43 59° SW 21:48:05 39° S
Cosmos 1842 Rocket 3.8 21:42:55 10° NNW 21:47:13 60° W 21:49:02 32° SSW
Cosmos 2151 4.1 21:47:18 26° ESE 21:47:56 28° E 21:51:34 10° NNE
JB-3 4.3 21:44:39 10° N 21:48:31 78° WNW 21:49:57 37° SSW
MTI 4.2 21:49:26 10° N 21:52:27 54° WNW 21:53:10 41° WSW
Cosmos 923 Rocket 3.9 21:52:19 27° SSW 21:55:15 85° ESE 22:00:35 10° NNE
Cosmos 2327 Rocket 4.4 21:52:14 29° S 21:55:39 80° E 22:01:48 10° N
ATLAS CENTAUR R/B 1.9 21:54:38 10° NW 21:58:02 36° WSW 21:58:26 35° SW
Cosmos 1825 2.9 21:58:09 37° E 21:58:20 37° E 22:01:51 10° NNE
ALOS 2 3.9 21:58:03 24° ESE 21:59:33 29° ENE 22:03:21 10° N
Cosmos 1980 3.6 21:56:55 27° SSW 22:00:06 78° ESE 22:05:46 10° NNE
Cosmos 44 4.2 22:05:14 26° E 22:05:14 26° E 22:08:20 10° ENE
COSMOS 2428 3.7 21:59:49 10° SW 22:05:13 45° WNW 22:10:40 10° NNE
Cosmos 1869 4.3 22:04:23 10° NNW 22:08:07 40° W 22:09:23 31° SW
Cosmos 1295 Rocket 4.4 22:06:31 34° S 22:09:21 74° E 22:15:28 10° NNE
GP-B 4.2 22:06:39 10° NNE 22:10:36 30° E 22:11:23 29° ESE
NOSS 0 Rocket 4.0 22:07:31 16° SW 22:12:31 76° WNW 22:18:44 10° NNE
Terra 3.3 22:10:34 19° SW 22:12:54 27° W 22:16:57 10° NW
Cosmos 1624 Rocket 4.2 22:09:50 10° NNW 22:15:03 64° ENE 22:16:57 38° SE
NOSS 3-4 (A) 3.8 22:08:26 10° NW 22:15:28 84° NE 22:19:47 29° SE
NOSS 3-4 (C) 3.9 22:08:33 10° NW 22:15:35 84° NE 22:19:55 29° SE
Cosmos 2237 Rocket 2.2 22:14:58 25° SSW 22:18:23 82° WNW 22:24:08 10° NNE
Genesis I 3.0 22:18:36 62° SSW 22:19:11 83° SE 22:23:06 10° NE
Cosmos 2344 3.5 22:16:02 22° SSW 22:21:05 70° ESE 22:28:58 10° NE
Cosmos 2219 Rocket 3.8 22:16:17 10° WSW 22:21:13 31° NW 22:26:13 10° N
Atlas Centaur 2 4.3 22:19:27 10° SW 22:21:21 15° SW 22:21:21 15° SW
DELTA 2 R/B (1) 3.8 22:24:33 10° WSW 22:29:51 44° S 22:30:03 44° SSE
Thor Agena Rocket 3.6 22:26:05 10° N 22:31:12 74° WNW 22:33:18 36° SSW
Cosmos 2333 Rocket 4.2 22:26:47 10° WSW 22:31:32 27° NW 22:36:20 10° N
Cosmos 2221 4.4 22:34:23 10° NW 22:37:43 21° W 22:39:20 17° WSW
BREEZE-M DEB (TANK) 2.1 22:38:21 10° WNW 22:41:22 53° NNW 22:41:22 53° NNW
Iridium 2 4.3 22:38:19 10° NNW 22:41:58 44° W 22:42:26 42° WSW
Cosmos 1371 Rocket 4.1 22:37:34 10° NNW 22:42:48 67° WSW 22:44:15 46° S
ATLAS 2AS CENTAUR R/B 2.8 22:35:53 10° NW 22:43:25 75° WSW 22:46:25 37° SSE
EO 1 Del DPAF 3.8 22:40:37 10° N 22:44:16 49° WNW 22:44:59 42° WSW
Cosmos 1766 Rocket 3.4 22:44:24 61° SSE 22:45:02 74° E 22:49:27 10° NNE
MOS 1-B Rocket 4.5 22:38:27 10° NNE 22:46:11 75° WNW 22:49:56 29° SSW
Gbstr 26 Del rocket 4.3 22:49:28 23° E 22:49:28 23° E 22:51:22 10° ENE
Okean 3 Rocket 3.5 22:47:02 60° S 22:47:51 89° W 22:52:19 10° N
Cosmos 1328 Rocket 3.6 22:45:30 10° N 22:49:48 64° E 22:50:25 56° SE
Aureole 2 Rocket 3.1 22:46:57 10° NNW 22:48:59 43° NNW 22:48:59 43° NNW
USA 215 4.3 22:43:38 10° NE 22:49:51 46° NNW 22:56:01 10° W
Cosmos 1606 2.5 22:48:14 10° N 22:52:08 88° E 22:52:19 81° SSE
Cosmos 2218 Rocket 4.0 22:50:54 40° SSE 22:53:16 71° E 22:59:34 10° NNE
Cosmos 2278 Rocket 3.3 22:48:32 10° NW 22:53:25 30° WSW 22:54:59 26° SW
Cosmos 2297 3.7 22:49:25 10° NNW 22:55:12 84° ENE 22:57:11 43° SSE
Cosmos 2366 rocket 4.0 22:56:35 41° S 22:58:56 75° E 23:05:18 10° NNE
Cosmos 1420 Rocket 4.0 22:53:44 10° NNW 22:59:02 80° ENE 23:00:36 47° SSE
Cosmos 1633 3.7 23:01:11 33° E 23:01:11 33° E 23:04:10 10° NNE
Lacrosse 5 rocket 3.6 22:57:50 10° NNW 23:01:05 23° NNE 23:04:12 10° ENE
Cosmos 1943 Rocket 2.9 22:56:18 10° NNW 23:01:49 48° ENE 23:04:41 26° ESE
SL-16 R/B 2.1 23:00:46 43° SSW 23:02:42 85° ESE 23:08:26 10° NNE
Cosmos 2056 Rocket 4.0 23:01:28 10° NNW 23:06:41 49° WSW 23:07:58 41° SW
Cosmos 1959 Rocket 4.4 23:06:20 42° S 23:08:35 89° E 23:14:48 10° N
YAOGAN 11 4.4 23:09:09 48° ESE 23:10:01 58° ENE 23:14:22 10° N
Cosmos 1743 Rocket 4.1 23:12:36 42° ESE 23:13:00 43° E 23:17:07 10° NNE
Cosmos 2341 Rocket 4.5 23:11:46 30° SW 23:14:42 52° WNW 23:20:47 10° N
Cosmos 332 Rocket 3.7 23:15:35 10° NNW 23:20:24 79° ENE 23:21:28 54° SE
Cosmos 1048 Rocket 4.4 23:19:32 44° SE 23:20:33 50° ESE 23:25:39 10° NNE
USA 267 3.9 23:21:24 34° SSW 23:22:31 36° SW 23:28:28 10° WNW
Meteor 2-3 Rocket 3.7 23:21:02 47° SSW 23:22:47 87° W 23:28:31 10° N
Helios 1A 2.8 23:24:53 71° SSW 23:25:14 78° WSW 23:29:26 10° NNW
Cosmos 405 3.2 23:25:46 10° N 23:29:08 64° ENE 23:29:08 64° ENE
Meteor 1-26 Rocket 4.4 23:27:28 10° NNW 23:33:27 71° W 23:35:20 45° SSW
Cosmos 1452 Rocket 3.4 23:28:33 10° NNW 23:33:50 78° WSW 23:35:06 52° S
Cosmos 1825 4.4 23:32:56 15° W 23:34:01 16° WNW 23:36:28 10° NNW
Cosmos 1340 3.2 23:34:23 46° W 23:34:34 46° WNW 23:38:13 10° N
CZ-4C R/B 3.6 23:27:58 10° NNW 23:34:52 53° NE 23:42:50 10° ESE
ALOS 2 3.8 23:35:27 29° WSW 23:35:50 29° W 23:39:41 10° NW
COSMOS 2455 2.8 23:29:45 10° NNW 23:35:50 86° ENE 23:38:24 37° SE
PSLV R/B 3.7 23:32:02 10° NNE 23:36:11 54° E 23:36:34 52° ESE
Cosmos 1408 Rocket 3.9 23:35:56 47° WSW 23:36:40 53° WNW 23:41:00 10° N
SL-16 R/B 4.4 23:32:43 10° ESE 23:37:34 25° ENE 23:42:27 10° N
Cosmos 1603 4.2 23:36:25 39° SE 23:37:44 46° ESE 23:43:10 10° NE
Cosmos 1933 4.2 23:34:25 10° NNW 23:38:06 36° W 23:38:13 36° W
Cosmos 1151 Rocket 3.9 23:35:43 10° NNW 23:39:39 34° W 23:40:03 34° WSW
Cosmos 1500 Rocket 3.4 23:44:49 66° SSW 23:45:26 87° W 23:49:52 10° N
Cosmos 44 4.2 23:43:38 24° W 23:45:39 38° NW 23:49:50 10° NNE
Cosmos 1727 Rocket 4.1 23:39:41 10° NNW 23:45:52 67° W 23:48:04 41° SSW
Cosmos 2369 Rocket 2.3 23:40:48 10° NNW 23:46:24 73° ENE 23:48:49 35° SE
Resurs 1-4 Rocket 4.1 23:43:07 10° NE 23:46:32 17° E 23:48:44 14° ESE
ISS -1.3 23:51:01 14° E 23:51:01 14° E 23:51:42 10° E
Cosmos 371 Rocket 3.9 23:45:26 10° NW 23:49:57 40° WSW 23:50:25 39° WSW
SeaSat 1 3.8 23:46:34 10° NE 23:50:33 24° ESE 23:51:20 23° ESE
Helios 1B rocket 2.3 23:50:51 10° NNE 23:54:59 72° ESE 23:55:23 66° SSE
